Location: Maiden
(35.5760°N, 81.2120°W)
Time: 10:56:32
(UTC-04:00)

Vanguard 2 - All Passes

Search period start: 04 August 2020 00:00
Search period end: 14 August 2020 00:00
Orbit: 553 x 2938 km, 32.9° (Epoch: 03 August)

Date Brightness Start Highest point End Pass type
(mag) Time Alt. Az. Time Alt. Az. Time Alt. Az.
04 Aug - 00:25:56 10° WSW 00:38:49 67° S 00:46:23 10° E visible
04 Aug - 02:38:50 10° W 02:48:19 71° S 02:53:55 10° ESE visible
04 Aug - 04:50:49 10° W 04:56:27 32° SSW 05:00:29 10° SE visible
04 Aug - 20:23:00 10° SSW 20:35:19 25° SSE 20:45:11 10° E daylight
04 Aug - 22:31:33 10° SW 22:46:22 50° SSE 22:55:59 10° E visible
05 Aug - 00:44:00 10° WSW 00:56:49 73° S 01:04:14 10° E visible
05 Aug - 02:57:00 10° W 03:06:10 65° SSW 03:11:40 10° ESE visible
05 Aug - 05:09:14 10° W 05:13:58 23° SW 05:17:35 10° SSE visible
05 Aug - 20:39:07 10° SSW 20:53:14 32° SSE 21:04:05 10° E visible
05 Aug - 22:49:07 10° SW 23:04:21 59° SSE 23:13:58 10° E visible
06 Aug - 01:02:10 10° W 01:14:47 76° S 01:22:04 10° E visible
06 Aug - 03:15:12 10° W 03:23:58 56° SSW 03:29:20 10° ESE visible
06 Aug - 05:28:07 10° WSW 05:31:24 15° SW 05:34:08 10° S visible
06 Aug - 18:51:01 10° S 18:59:59 16° SE 19:08:12 10° ESE daylight
06 Aug - 20:55:48 10° SSW 21:11:10 40° SSE 21:22:34 10° E visible
06 Aug - 23:06:56 10° WSW 23:22:22 66° SSE 23:31:54 10° E visible
07 Aug - 01:20:23 10° W 01:32:45 76° S 01:39:53 10° E visible
07 Aug - 03:33:24 10° W 03:41:40 45° SSW 03:46:51 10° SE visible
07 Aug - 19:05:41 10° S 19:17:47 23° SE 19:28:32 10° E daylight
07 Aug - 21:12:53 10° SW 21:29:07 49° SSE 21:40:48 10° E visible
07 Aug - 23:24:56 10° WSW 23:40:23 73° S 23:49:48 10° E visible
08 Aug - 01:38:38 10° W 01:50:42 73° S 01:57:41 10° ESE visible
08 Aug - 03:51:44 10° W 03:59:15 35° SSW 04:04:11 10° SSE night (unlit)
08 Aug - 19:21:28 10° SSW 19:35:35 30° SE 19:47:47 10° E daylight
08 Aug - 21:30:17 10° SW 21:47:05 57° SSE 21:58:54 10° E visible
08 Aug - 23:43:05 10° WSW 23:58:25 77° S 00:07:40 10° E visible
09 Aug - 01:56:52 10° W 02:08:35 67° SSW 02:15:24 10° ESE visible
09 Aug - 04:10:14 10° W 04:16:41 25° SW 04:21:13 10° SSE night (unlit)
09 Aug - 17:35:57 10° SSE 17:42:28 13° SE 17:48:53 10° ESE daylight
09 Aug - 19:37:54 10° SSW 19:53:24 38° SSE 20:06:29 10° E daylight
09 Aug - 21:47:59 10° WSW 22:05:05 65° SSE 22:16:53 10° E visible
10 Aug - 00:01:19 10° W 00:16:28 79° S 00:25:32 10° E visible
10 Aug - 02:15:07 10° W 02:26:22 58° SSW 02:33:02 10° SE visible
10 Aug - 04:29:10 10° W 04:34:01 17° SW 04:37:45 10° S night (unlit)
10 Aug - 17:49:27 10° S 18:00:07 19° SE 18:10:33 10° E daylight
10 Aug - 19:54:47 10° SW 20:11:15 46° SSE 20:24:53 10° E daylight
10 Aug - 22:05:52 10° WSW 22:23:08 72° SSE 22:34:51 10° E visible
11 Aug - 00:19:35 10° W 00:34:30 78° S 00:43:23 10° ESE visible
11 Aug - 02:33:25 10° W 02:44:04 47° SSW 02:50:31 10° SE visible
11 Aug - 04:49:31 10° WSW 04:51:14 11° SW 04:52:49 10° SSW night (unlit)
11 Aug - 18:04:46 10° S 18:17:45 26° SE 18:30:23 10° E daylight
11 Aug - 20:12:01 10° SW 20:29:09 55° SSE 20:43:05 10° E visible
11 Aug - 22:23:55 10° WSW 22:41:14 77° S 22:52:46 10° E visible
12 Aug - 00:37:52 10° W 00:52:29 74° SSW 01:01:10 10° ESE visible
12 Aug - 02:51:48 10° W 03:01:36 37° SW 03:07:48 10° SSE visible
12 Aug - 18:20:53 10° SSW 18:35:23 34° SE 18:49:25 10° E daylight
12 Aug - 20:29:31 10° SW 20:47:07 63° SSE 21:01:10 10° E visible
12 Aug - 22:42:06 10° W 22:59:20 80° S 23:10:42 10° E visible
13 Aug - 00:56:08 10° W 01:10:24 67° SSW 01:18:54 10° ESE visible
13 Aug - 03:10:23 10° W 03:18:59 28° SW 03:24:48 10° SSE visible
13 Aug - 16:34:48 10° SSE 16:42:35 15° SE 16:50:44 10° ESE daylight
13 Aug - 18:37:32 10° SSW 18:53:04 42° SSE 19:08:02 10° E daylight
13 Aug - 20:47:16 10° WSW 21:05:09 70° SSE 21:19:13 10° E visible
13 Aug - 23:00:20 10° W 23:17:27 80° S 23:28:36 10° E visible
